Regional Weather Roundup
Issued by NWS

Home | Current Version | Previous Version | Text Only | Print | Product List | Glossary On
Versions: 1 2 3 4 5 6 7 8 9 10 11 12 13 14 15 16 17 18 19 20 21 22 23 24 25 26 27 28 29 30 31 32 33 34 35 36 37 38 39 40 41 42 43 44 45 46 47 48 49 50
449
ASUS43 KFSD 051110
RWRSD

WEATHER ROUNDUP FOR SOUTH DAKOTA
NATIONAL WEATHER SERVICE SIOUX FALLS SD
500 AM CST MON DEC 05 2016

NOTE: "FAIR" INDICATES FEW OR NO CLOUDS BELOW 12,000 FEET WITH NO
SIGNIFICANT WEATHER AND/OR OBSTRUCTIONS TO VISIBILITY.


SDZ001>005-009-010-012>017-051200-
NORTHWEST AND NORTH CENTRAL SOUTH DAKOTA

CITY           SKY/WX    TMP DP  RH WIND       PRES   REMARKS
BUFFALO          N/A     34  31  88 NW17      29.46R WCI  23
FAITH            N/A     27  23  85 NW6       29.48F WCI  20
MOBRIDGE       CLEAR     30  20  66 E10       29.50F WCI  21
$$

SDZ012>016-024>037-041>051-057-063-072>074-051200-
SOUTHWEST AND SOUTH CENTRAL SOUTH DAKOTA

CITY           SKY/WX    TMP DP  RH WIND       PRES   REMARKS
RAPID CTY ARPT CLOUDY    34  23  64 NW10      29.48S WCI  26
PIERRE         CLOUDY    27  23  85 SE3       29.50F
CUSTER         CLOUDY    34  20  56 W9G21     29.45F WCI  27
ELLSWORTH AFB  CLOUDY    37  25  61 NW16      29.47S
PHILIP         CLOUDY    27  24  89 CALM      29.47F
PINE RIDGE     CLOUDY    32  25  75 CALM      29.50F
SPEARFISH      LGT SNOW  32  32 100 NW15G22   29.53R VSB 1   WCI  22
WINNER         FAIR      39  22  50 SW10      29.52F
$$

SDZ004>011-016>023-039-040-051200-
NORTHEAST SOUTH DAKOTA

CITY           SKY/WX    TMP DP  RH WIND       PRES   REMARKS
ABERDEEN       CLEAR     25  22  88 NE6       29.58F WCI  18
WATERTOWN      PTCLDY    33  26  75 SE9       29.61F WCI  25
BROOKINGS      PTCLDY    32  29  88 SE15      29.61F WCI  22
SISSETON         N/A     26  24  92 S5        29.64F WCI  20
$$

SDZ017-020-022-023-036>040-048>070-051200-
SOUTHEAST SOUTH DAKOTA

CITY           SKY/WX    TMP DP  RH WIND       PRES   REMARKS
SIOUX FALLS    CLOUDY    35  29  78 S12       29.64F WCI  27
HURON          CLOUDY    31  27  85 SE8       29.58F WCI  23
CHAMBERLAIN    PTCLDY    30  27  86 SE3       29.54F
MITCHELL       PTCLDY    32  27  81 S12       29.59F WCI  23
YANKTON        CLOUDY    37  25  60 S12       29.63F
$$

ABBREVIATIONS USED IN REMARKS
   TC - TEMPERATURE IN CELSIUS
  WCI - WIND CHILL INDEX
   HX - HEAT INDEX
  VSB - VISIBILITY





USA.gov is the U.S. government's official web portal to all federal, state and local government web resources and services.